CMP892 MPTO-SKSP

Flight info

Callsign CMP892
Flight time 0h 48m
Altitude 30000
Route SIMAN DCT BIXOX BIXOX2C
Aircraft B738/M-SDE2E3FGHIRWXY/LB1

Departure

Time 2026-04-27 19:11
Airport Tocumen International Airport (MPTO)

Arrival

Time 2026-04-27 19:59
Airport Gustavo Rojas Pinilla International Airport (SKSP)
Time Latitude Longitude Altitude Speed Heading
2026-04-27 18:44 9.05985 -79.39228 29 ft 0 kts 124°
2026-04-27 18:57 9.05993 -79.39239 29 ft 2 kts 124°
2026-04-27 18:57 9.06002 -79.39253 29 ft 2 kts 125°
2026-04-27 18:57 9.06012 -79.39266 29 ft 2 kts 128°
2026-04-27 18:58 9.06024 -79.39278 29 ft 2 kts 172°
2026-04-27 18:58 9.06031 -79.39278 29 ft 0 kts 205°
2026-04-27 19:03 9.06021 -79.39283 16 ft 3 kts 205°
2026-04-27 19:03 9.05994 -79.39285 17 ft 5 kts 165°
2026-04-27 19:03 9.05964 -79.39258 17 ft 7 kts 125°
2026-04-27 19:03 9.05947 -79.39228 17 ft 8 kts 120°
2026-04-27 19:04 9.05905 -79.39151 17 ft 10 kts 118°
2026-04-27 19:04 9.05910 -79.39086 17 ft 10 kts 40°
2026-04-27 19:04 9.05970 -79.39050 18 ft 10 kts 30°
2026-04-27 19:04 9.06027 -79.39014 17 ft 10 kts 34°
2026-04-27 19:05 9.06074 -79.38967 17 ft 10 kts 68°
2026-04-27 19:05 9.06056 -79.38903 17 ft 10 kts 118°
2026-04-27 19:05 9.06020 -79.38839 15 ft 11 kts 120°
2026-04-27 19:05 9.05985 -79.38771 29 ft 11 kts 96°
2026-04-27 19:06 9.06033 -79.38714 29 ft 11 kts 30°
2026-04-27 19:06 9.06106 -79.38674 29 ft 12 kts 30°
2026-04-27 19:06 9.06182 -79.38630 29 ft 13 kts 31°
2026-04-27 19:06 9.06262 -79.38583 29 ft 14 kts 29°
2026-04-27 19:07 9.06347 -79.38533 29 ft 14 kts 30°
2026-04-27 19:07 9.06437 -79.38483 29 ft 15 kts 28°
2026-04-27 19:07 9.06529 -79.38428 29 ft 16 kts 30°
2026-04-27 19:07 9.06627 -79.38373 29 ft 16 kts 28°
2026-04-27 19:08 9.06728 -79.38320 29 ft 17 kts 28°
2026-04-27 19:08 9.06832 -79.38265 29 ft 17 kts 27°
2026-04-27 19:08 9.06932 -79.38212 29 ft 16 kts 27°
2026-04-27 19:08 9.07028 -79.38160 29 ft 15 kts 27°
2026-04-27 19:09 9.07118 -79.38108 29 ft 15 kts 32°
2026-04-27 19:09 9.07199 -79.38050 29 ft 14 kts 54°
2026-04-27 19:09 9.07170 -79.37962 29 ft 14 kts 121°
2026-04-27 19:09 9.07094 -79.37940 29 ft 13 kts 208°
2026-04-27 19:10 9.07012 -79.37981 29 ft 13 kts 207°
2026-04-27 19:10 9.06900 -79.38046 29 ft 35 kts 209°
2026-04-27 19:10 9.06450 -79.38301 28 ft 110 kts 209°
2026-04-27 19:10 9.05923 -79.38599 32 ft 151 kts 208°
2026-04-27 19:11 9.04567 -79.39355 817 ft 165 kts 205°
2026-04-27 19:11 9.03571 -79.39937 1538 ft 176 kts 210°
2026-04-27 19:11 9.02460 -79.40699 1909 ft 209 kts 221°
2026-04-27 19:11 9.01639 -79.41999 2120 ft 236 kts 260°
2026-04-27 19:12 9.01851 -79.43655 2475 ft 251 kts 298°
2026-04-27 19:12 9.03081 -79.44934 3002 ft 260 kts 328°
2026-04-27 19:12 9.04460 -79.46156 3874 ft 264 kts 307°
2026-04-27 19:12 9.05515 -79.47640 4818 ft 265 kts 309°
2026-04-27 19:13 9.06678 -79.49119 5653 ft 271 kts 310°
2026-04-27 19:13 9.07885 -79.50616 6422 ft 278 kts 310°
2026-04-27 19:13 9.09109 -79.52136 7324 ft 279 kts 310°
2026-04-27 19:13 9.10342 -79.53677 8096 ft 285 kts 310°
2026-04-27 19:14 9.11590 -79.55246 8903 ft 289 kts 310°
2026-04-27 19:14 9.12858 -79.56850 9725 ft 293 kts 310°
2026-04-27 19:14 9.14141 -79.58475 10382 ft 301 kts 310°
2026-04-27 19:14 9.15505 -79.60206 10585 ft 326 kts 309°
2026-04-27 19:15 9.16944 -79.62035 11061 ft 338 kts 309°
2026-04-27 19:15 9.18420 -79.63915 11730 ft 342 kts 309°
2026-04-27 19:15 9.19905 -79.65808 12473 ft 345 kts 308°
2026-04-27 19:15 9.21406 -79.67721 13174 ft 349 kts 308°
2026-04-27 19:16 9.22924 -79.69658 13836 ft 353 kts 308°
2026-04-27 19:16 9.23937 -79.70949 14247 ft 355 kts 308°
2026-04-27 19:16 9.26008 -79.73592 15063 ft 360 kts 308°
2026-04-27 19:16 9.27573 -79.75587 15660 ft 364 kts 308°
2026-04-27 19:17 9.29153 -79.77603 16246 ft 368 kts 309°
2026-04-27 19:17 9.30734 -79.79620 16832 ft 371 kts 309°
2026-04-27 19:17 9.32347 -79.81679 17420 ft 375 kts 309°
2026-04-27 19:17 9.33981 -79.83763 17987 ft 379 kts 309°
2026-04-27 19:18 9.35695 -79.85799 18489 ft 382 kts 316°
2026-04-27 19:18 9.37743 -79.87522 19002 ft 383 kts 327°
2026-04-27 19:18 9.40049 -79.88887 19523 ft 385 kts 332°
2026-04-27 19:18 9.42411 -79.90198 20001 ft 388 kts 332°
2026-04-27 19:19 9.44792 -79.91518 20463 ft 392 kts 331°
2026-04-27 19:19 9.47189 -79.92852 20936 ft 395 kts 331°
2026-04-27 19:19 9.49600 -79.94202 21417 ft 398 kts 330°
2026-04-27 19:19 9.52026 -79.95567 21889 ft 400 kts 330°
2026-04-27 19:20 9.54472 -79.96948 22342 ft 404 kts 330°
2026-04-27 19:20 9.56937 -79.98343 22799 ft 406 kts 330°
2026-04-27 19:20 9.59413 -79.99747 23253 ft 409 kts 330°
2026-04-27 19:20 9.61903 -80.01159 23659 ft 412 kts 330°
2026-04-27 19:21 9.64421 -80.02588 24000 ft 415 kts 329°
2026-04-27 19:21 9.66954 -80.04026 24333 ft 419 kts 330°
2026-04-27 19:21 9.69466 -80.05451 24700 ft 421 kts 329°
2026-04-27 19:21 9.72027 -80.06904 25094 ft 422 kts 329°
2026-04-27 19:22 9.74592 -80.08361 25564 ft 422 kts 329°
2026-04-27 19:22 9.77154 -80.09815 26041 ft 421 kts 329°
2026-04-27 19:22 9.79715 -80.11269 26495 ft 421 kts 329°
2026-04-27 19:22 9.82274 -80.12723 26946 ft 422 kts 329°
2026-04-27 19:23 9.84833 -80.14177 27411 ft 422 kts 328°
2026-04-27 19:23 9.87395 -80.15632 27859 ft 422 kts 328°
2026-04-27 19:23 9.89963 -80.17092 27878 ft 422 kts 328°
2026-04-27 19:23 9.92488 -80.18526 27915 ft 420 kts 328°
2026-04-27 19:24 9.95044 -80.19980 27906 ft 422 kts 328°
2026-04-27 19:24 9.97610 -80.21439 27922 ft 422 kts 328°
2026-04-27 19:24 10.00182 -80.22902 27923 ft 423 kts 328°
2026-04-27 19:24 10.02748 -80.24361 27918 ft 423 kts 328°
2026-04-27 19:25 10.05316 -80.25822 27917 ft 423 kts 328°
2026-04-27 19:25 10.07882 -80.27282 27906 ft 423 kts 328°
2026-04-27 19:25 10.10451 -80.28744 27920 ft 423 kts 328°
2026-04-27 19:25 10.13015 -80.30203 27914 ft 423 kts 328°
2026-04-27 19:26 10.15584 -80.31666 27911 ft 423 kts 328°
2026-04-27 19:26 10.18115 -80.33106 27922 ft 422 kts 328°
2026-04-27 19:26 10.20681 -80.34568 27906 ft 422 kts 328°
2026-04-27 19:26 10.23239 -80.36025 27916 ft 422 kts 328°
2026-04-27 19:27 10.25802 -80.37485 27912 ft 421 kts 328°
2026-04-27 19:27 10.28357 -80.38941 27913 ft 421 kts 328°
2026-04-27 19:27 10.30914 -80.40398 27917 ft 421 kts 328°
2026-04-27 19:27 10.33466 -80.41853 27917 ft 421 kts 328°
2026-04-27 19:28 10.36020 -80.43309 27913 ft 421 kts 328°
2026-04-27 19:28 10.38577 -80.44767 27916 ft 421 kts 328°
2026-04-27 19:28 10.41127 -80.46222 27916 ft 421 kts 328°
2026-04-27 19:28 10.43681 -80.47679 27910 ft 421 kts 328°
2026-04-27 19:29 10.46236 -80.49136 27919 ft 421 kts 328°
2026-04-27 19:29 10.48790 -80.50594 27916 ft 421 kts 328°
2026-04-27 19:29 10.51337 -80.52048 27918 ft 421 kts 328°
2026-04-27 19:29 10.53889 -80.53505 27913 ft 421 kts 328°
2026-04-27 19:30 10.56446 -80.54965 27917 ft 421 kts 328°
2026-04-27 19:30 10.58994 -80.56420 27913 ft 421 kts 328°
2026-04-27 19:30 10.61549 -80.57880 27917 ft 421 kts 328°
2026-04-27 19:30 10.64106 -80.59341 27908 ft 420 kts 328°
2026-04-27 19:31 10.66626 -80.60780 27910 ft 420 kts 328°
2026-04-27 19:31 10.69175 -80.62237 27914 ft 420 kts 328°
2026-04-27 19:31 10.71720 -80.63692 27909 ft 420 kts 328°
2026-04-27 19:31 10.74267 -80.65149 27914 ft 420 kts 328°
2026-04-27 19:32 10.76816 -80.66606 27915 ft 420 kts 328°
2026-04-27 19:32 10.79357 -80.68060 27911 ft 419 kts 328°
2026-04-27 19:32 10.81905 -80.69517 27917 ft 419 kts 328°
2026-04-27 19:32 10.84450 -80.70974 27912 ft 419 kts 328°
2026-04-27 19:33 10.86960 -80.72411 27909 ft 419 kts 328°
2026-04-27 19:33 10.87818 -80.72902 27910 ft 419 kts 328°
2026-04-27 19:33 10.92048 -80.75324 27915 ft 418 kts 328°
2026-04-27 19:33 10.94584 -80.76776 27909 ft 418 kts 328°
2026-04-27 19:34 10.97125 -80.78231 27909 ft 417 kts 328°
2026-04-27 19:34 10.99629 -80.79665 27897 ft 407 kts 328°
2026-04-27 19:34 11.02051 -80.81051 27908 ft 403 kts 328°
2026-04-27 19:34 11.04491 -80.82449 27913 ft 403 kts 328°
2026-04-27 19:35 11.06932 -80.83850 27918 ft 404 kts 328°
2026-04-27 19:35 11.09394 -80.85263 27583 ft 405 kts 328°
2026-04-27 19:35 11.11834 -80.86662 27264 ft 401 kts 328°
2026-04-27 19:35 11.14259 -80.88053 26875 ft 398 kts 328°
2026-04-27 19:36 11.16660 -80.89430 26509 ft 395 kts 328°
2026-04-27 19:36 11.19048 -80.90800 26130 ft 392 kts 328°
2026-04-27 19:36 11.21421 -80.92162 25751 ft 390 kts 328°
2026-04-27 19:36 11.22982 -80.93058 25494 ft 388 kts 328°
2026-04-27 19:37 11.25330 -80.94406 25132 ft 386 kts 328°
2026-04-27 19:37 11.27667 -80.95748 24744 ft 384 kts 329°
2026-04-27 19:37 11.30747 -80.97518 24244 ft 382 kts 329°
2026-04-27 19:37 11.32310 -80.98415 23980 ft 381 kts 329°
2026-04-27 19:38 11.34610 -80.99737 23604 ft 380 kts 329°
2026-04-27 19:38 11.36910 -81.01059 23181 ft 378 kts 329°
2026-04-27 19:38 11.39163 -81.02354 22778 ft 375 kts 329°
2026-04-27 19:38 11.41430 -81.03657 22389 ft 372 kts 329°
2026-04-27 19:39 11.43674 -81.04948 22015 ft 369 kts 329°
2026-04-27 19:39 11.45907 -81.06232 21641 ft 366 kts 329°
2026-04-27 19:39 11.48117 -81.07504 21273 ft 363 kts 329°
2026-04-27 19:39 11.50310 -81.08766 20908 ft 361 kts 329°
2026-04-27 19:40 11.52486 -81.10019 20560 ft 358 kts 329°
2026-04-27 19:40 11.54650 -81.11263 20206 ft 356 kts 330°
2026-04-27 19:40 11.56779 -81.12535 19853 ft 353 kts 325°
2026-04-27 19:40 11.58743 -81.14009 19566 ft 349 kts 321°
2026-04-27 19:41 11.60615 -81.15568 19223 ft 347 kts 320°
2026-04-27 19:41 11.62465 -81.17147 18878 ft 345 kts 320°
2026-04-27 19:41 11.64305 -81.18711 18506 ft 345 kts 320°
2026-04-27 19:41 11.66156 -81.20268 18145 ft 344 kts 321°
2026-04-27 19:42 11.68007 -81.21811 17773 ft 342 kts 321°
2026-04-27 19:42 11.69822 -81.23313 17403 ft 340 kts 321°
2026-04-27 19:42 11.71658 -81.24826 17046 ft 338 kts 321°
2026-04-27 19:42 11.73483 -81.26326 16697 ft 336 kts 321°
2026-04-27 19:43 11.75298 -81.27816 16348 ft 334 kts 321°
2026-04-27 19:43 11.77105 -81.29298 16005 ft 332 kts 321°
2026-04-27 19:43 11.78895 -81.30767 15658 ft 330 kts 321°
2026-04-27 19:43 11.80680 -81.32231 15316 ft 328 kts 321°
2026-04-27 19:44 11.82459 -81.33691 14974 ft 327 kts 321°
2026-04-27 19:44 11.84227 -81.35141 14636 ft 325 kts 321°
2026-04-27 19:44 11.85987 -81.36585 14290 ft 324 kts 320°
2026-04-27 19:44 11.87745 -81.38028 13949 ft 323 kts 320°
2026-04-27 19:45 11.89494 -81.39464 13584 ft 323 kts 320°
2026-04-27 19:45 11.91240 -81.40897 13215 ft 321 kts 321°
2026-04-27 19:45 11.92977 -81.42325 12858 ft 319 kts 321°
2026-04-27 19:45 11.94703 -81.43742 12514 ft 317 kts 321°
2026-04-27 19:46 11.96396 -81.45133 12178 ft 315 kts 321°
2026-04-27 19:46 11.98099 -81.46532 11843 ft 313 kts 321°
2026-04-27 19:46 11.99786 -81.47919 11517 ft 311 kts 321°
2026-04-27 19:46 12.01471 -81.49304 11187 ft 309 kts 321°
2026-04-27 19:47 12.03145 -81.50680 10858 ft 307 kts 321°
2026-04-27 19:47 12.04810 -81.52049 10535 ft 306 kts 322°
2026-04-27 19:47 12.06444 -81.53393 10231 ft 304 kts 322°
2026-04-27 19:47 12.08069 -81.54729 10094 ft 296 kts 322°
2026-04-27 19:48 12.09654 -81.56032 9901 ft 290 kts 322°
2026-04-27 19:48 12.11227 -81.57326 9587 ft 289 kts 322°
2026-04-27 19:48 12.12786 -81.58608 9286 ft 287 kts 322°
2026-04-27 19:48 12.14337 -81.59883 8994 ft 285 kts 322°
2026-04-27 19:49 12.15877 -81.61149 8708 ft 283 kts 322°
2026-04-27 19:49 12.17414 -81.62414 8406 ft 281 kts 322°
2026-04-27 19:49 12.18935 -81.63666 8119 ft 280 kts 322°
2026-04-27 19:49 12.20432 -81.64898 7834 ft 279 kts 322°
2026-04-27 19:50 12.21942 -81.66141 7544 ft 278 kts 322°
2026-04-27 19:50 12.23447 -81.67380 7251 ft 277 kts 322°
2026-04-27 19:50 12.24943 -81.68612 6972 ft 276 kts 322°
2026-04-27 19:50 12.26435 -81.69841 6680 ft 275 kts 322°
2026-04-27 19:51 12.27925 -81.71068 6402 ft 274 kts 322°
2026-04-27 19:51 12.29406 -81.72289 6102 ft 273 kts 322°
2026-04-27 19:51 12.30866 -81.73493 5805 ft 271 kts 322°
2026-04-27 19:51 12.32312 -81.74685 5502 ft 263 kts 322°
2026-04-27 19:52 12.33715 -81.75842 5223 ft 255 kts 322°
2026-04-27 19:52 12.35074 -81.76963 4958 ft 248 kts 322°
2026-04-27 19:52 12.36401 -81.78057 4692 ft 240 kts 323°
2026-04-27 19:52 12.37680 -81.79112 4491 ft 232 kts 323°
2026-04-27 19:53 12.40114 -81.81120 4066 ft 215 kts 323°
2026-04-27 19:53 12.41285 -81.82016 3891 ft 205 kts 330°
2026-04-27 19:53 12.42499 -81.82733 3760 ft 199 kts 333°
2026-04-27 19:54 12.43693 -81.83423 3634 ft 199 kts 332°
2026-04-27 19:54 12.44900 -81.84127 3473 ft 199 kts 332°
2026-04-27 19:54 12.46092 -81.84829 3332 ft 197 kts 332°
2026-04-27 19:54 12.47275 -81.85530 3195 ft 196 kts 332°
2026-04-27 19:55 12.48523 -81.86064 3042 ft 196 kts 357°
2026-04-27 19:55 12.49798 -81.85675 2916 ft 195 kts 44°
2026-04-27 19:55 12.50512 -81.84537 2815 ft 194 kts 64°
2026-04-27 19:55 12.51250 -81.83398 2582 ft 191 kts 52°
2026-04-27 19:56 12.51982 -81.82298 2307 ft 179 kts 60°
2026-04-27 19:56 12.52582 -81.81231 2081 ft 167 kts 61°
2026-04-27 19:56 12.53128 -81.80268 1878 ft 151 kts 60°
2026-04-27 19:56 12.53634 -81.79383 1733 ft 138 kts 60°
2026-04-27 19:57 12.54126 -81.78524 1532 ft 139 kts 60°
2026-04-27 19:57 12.54623 -81.77656 1324 ft 144 kts 60°
2026-04-27 19:57 12.55129 -81.76778 1140 ft 143 kts 61°
2026-04-27 19:57 12.55636 -81.75848 1078 ft 144 kts 63°
2026-04-27 19:58 12.56109 -81.74971 878 ft 139 kts 59°
2026-04-27 19:58 12.56611 -81.74116 675 ft 141 kts 59°
2026-04-27 19:58 12.57097 -81.73265 489 ft 140 kts 58°
2026-04-27 19:58 12.57610 -81.72420 236 ft 137 kts 58°
2026-04-27 19:59 12.58090 -81.71588 69 ft 129 kts 60°
2026-04-27 19:59 12.58486 -81.70903 51 ft 85 kts 59°
2026-04-27 19:59 12.58679 -81.70570 38 ft 26 kts 59°
2026-04-27 19:59 12.58729 -81.70442 33 ft 17 kts 95°
2026-04-27 20:00 12.58701 -81.70354 33 ft 10 kts 111°
2026-04-27 20:00 12.58657 -81.70315 33 ft 7 kts 149°
2026-04-27 20:00 12.58644 -81.70306 33 ft 0 kts 149°